Regional Weather Roundup
Issued by NWS

Home | Current Version | Previous Version | Text Only | Print | Product List | Glossary On
Versions: 1 2 3 4 5 6 7 8 9 10 11 12 13 14 15 16 17 18 19 20 21 22 23 24 25 26 27 28 29 30 31 32 33 34 35 36 37 38 39 40 41 42 43 44 45 46 47 48 49 50
000
ASUS43 KDTX 210210
RWRMI
MICHIGAN HOURLY REGIONAL WEATHER ROUNDUP
NATIONAL WEATHER SERVICE DETROIT/PONTIAC MI
900 PM EST FRI JAN 20 2017

NOTE: "FAIR" INDICATES FEW OR NO CLOUDS BELOW 12,000 FEET WITH NO
SIGNIFICANT WEATHER AND/OR OBSTRUCTION TO VISIBILITY.

MIZ047>049-052>055-059>063-066>070-074>076-081>083-210300-
SOUTHEAST LOWER MICHIGAN

CITY           SKY/WX    TMP DP  RH WIND       PRES   REMARKS
ADRIAN         FOG       39  39 100 S6        29.75S VSB 1/2 WCI  35
ALMA           FOG       33  33  99 W7        29.74R VSB 1/2 WCI  27
ANN ARBOR      CLOUDY    40  40 100 S5        29.73F FOG
BAD AXE        FOG       33  33 100 S3        29.72R VSB 1/2
CARO           FOG       34  34 100 CALM      29.72R VSB 1/4
DETROIT CITY   CLOUDY    41  41 100 SW7       29.75R FOG
DETROIT        CLOUDY    41  40  96 S5        29.75S FOG
FLINT          FOG       37  36  96 SW5       29.73R VSB 1   WCI  33
GROSSE ILE     FOG       37  36  99 CALM      29.74S VSB 3/4
HILLSDALE      FOG       41  41 100 S3        29.71F VSB 1/4
HOWELL         CLOUDY    38  37  97 CALM      29.72S FOG

CITY           SKY/WX    TMP DP  RH WIND       PRES   REMARKS
JACKSON        CLOUDY    41  40  96 S5        29.72S FOG
LAMBERTVILLE   CLOUDY    48  46  90 S5        29.75R
LANSING        FOG       37  35  92 CALM      29.73S VSB 3/4
LAPEER         CLOUDY    37  37 100 SW5       29.73R WCI  34
MASON          FOG       37  37 100 CALM      29.72S VSB 1/2
MONROE         FOG       41  41 100 CALM      29.74S VSB 3/4
MT. CLEMENS    CLOUDY    39  39 100 SW5       29.72R FOG
PONTIAC        FOG       37  36  96 S3        29.72R VSB 1/2
PORT HOPE        N/A     35  34  96 CALM      29.69F
PORT HURON     FOG       37  37 100 CALM      29.75R VSB 3/4
TRI CITIES     FOG       34  34 100 SW3       29.73R VSB 1/4
MIDLAND        CLOUDY    35  34  96 S3        29.72R FOG
TROY           CLOUDY    40  38  95 SW3       29.76R FOG
SAGINAW HB     CLOUDY    34  32  93 SW3       29.73R FOG
$$
MIZ043>046-050>051-056>058-064>065-071>073-077>080-210300-
SOUTHWEST LOWER MICHIGAN

CITY           SKY/WX    TMP DP  RH WIND       PRES   REMARKS
BATTLE CREEK   CLOUDY    40  40 100 S6        29.71F FOG
BENTON HARBOR  FOG       43  41  93 SE6       29.68S VSB 3/4
BIG RAPIDS     CLOUDY    33  32  96 S3        29.70S FOG
COLDWATER      FOG       42  42 100 CALM      29.72S VSB 1/4
FREMONT        FOG       34  34 100 E3        29.70S VSB 1/2
HOLLAND        CLOUDY    38  37  97 SE5       29.70F WCI  34
GRAND RAPIDS   FOG       35  34  96 E6        29.70F VSB 1/2 WCI  30
IONIA          FOG       33  33 100 CALM      29.71F VSB 1/2
KALAMAZOO      FOG       41  39  93 S3        29.71S VSB 1/2
LUDINGTON      CLOUDY    35  34  97 S3        29.70R
MARSHALL       CLOUDY    40  40  98 CALM      29.71S FOG
MOUNT PLEASANT CLOUDY    33  33  99 CALM      29.72R FOG
MUSKEGON       FOG       37  36  96 E3        29.70F VSB 3/4
SOUTH HAVEN    CLOUDY    40  40  99 SE3       29.69F FOG
$$
MIZ016>042-210300-
NORTHERN LOWER MICHIGAN

CITY           SKY/WX    TMP DP  RH WIND       PRES   REMARKS
ALPENA         LGT RAIN  33  32  96 CALM      29.73R VSB 1/4
BEAVER ISLAND  LGT RAIN  33  33 100 E5        29.70S WCI  29
BELLAIRE       CLOUDY    33  32  96 CALM      29.70S
CADILLAC       CLOUDY    33  32  96 S5        29.68R WCI  29
CHARLEVOIX     CLOUDY    34  34 100 SE6       29.73S FOG     WCI  29
FRANKFORT      CLOUDY    36  35  96 S3        29.69S
GAYLORD        CLOUDY    35  31  85 CALM      29.68S FOG
GRAYLING       CLOUDY    34  33  97 CALM      29.69S FOG
HARBOR SPRINGS FOG       33  33 100 E6        29.71S VSB 1/2 WCI  27
HOUGHTON LAKE  CLOUDY    33  32  96 SE3       29.69S
MANISTEE       CLOUDY    35  33  92 VRB5      29.70R WCI  31
OSCODA         FOG       34  33  97 CALM      29.70F VSB 3/4
PELLSTON       FOG       33  32  96 SE3       29.72R VSB 3/4
ROGERS CITY    SNOW      33  33  96 CALM      29.74R VSB 1/2
TRAVERSE CITY  CLOUDY    37  34  89 SE3       29.69R
$$
MIZ007>008-015-210300-
EASTERN UPPER MICHIGAN

CITY           SKY/WX    TMP DP  RH WIND       PRES   REMARKS
KINROSS        FOG       32  32 100 E10       29.72S VSB 1/2 WCI  24
MACKINAC ISLAN FOG       33  33 100 SE3       29.72R VSB 1/4
NEWBERRY       CLOUDY    32  31  97 SE3       29.71R FOG
S. S. MARIE    CLOUDY    33  32  96 SE7       29.72S FOG     WCI  27
MUNISING         N/A     35  33  92 CALM      29.69S
$$
MIZ004>006-011>014-085-210300-
CENTRAL UPPER MICHIGAN

CITY           SKY/WX    TMP DP  RH WIND       PRES   REMARKS
MANISTIQUE     LGT SNOW  32  32  99 E5        29.70S WCI  27
ESCANABA       CLOUDY    33  32  96 NE5       29.69S WCI  29
SAWYER-GWINN   LGT RAIN  34  32  93 CALM      29.66F
$$
MIZ001>003-009>011-084-210300-
WESTERN UPPER MICHIGAN

CITY           SKY/WX    TMP DP  RH WIND       PRES   REMARKS
IRON MOUNTAIN  CLOUDY    33  31  92 CALM      29.65R FOG
HOUGHTON       LGT RAIN  34  31  88 CALM      29.65F FOG
COPPER HARBOR    N/A     34  33  96 CALM      29.67R
IRONWOOD       CLOUDY    35  34  96 E3        29.62F
$$

ABBREVIATIONS USED IN REMARKS
   TC - TEMPERATURE IN CELSIUS
  WCI - WIND CHILL INDEX
   HX - HEAT INDEX
  VSB - VISIBILITY




USA.gov is the U.S. government's official web portal to all federal, state and local government web resources and services.